    Observer details:
    118 Modra.  Observer S. Gajdos.  0.6-m f/5.5 reflector + CCD.
    138 Village-Neuf.  Observer C. Demeautis.  0.25-m f/5.1 reflector + CCD.
    170 Observatorio de Begues.  Observer J. Manteca.  0.36-m f/10
        Schmidt-Cassegrain + CCD.
    213 Observatorio Montcabre.  Observer R. Naves.  Measurer M. Campas.  0.30-m
        f/6.6 Schmidt-Cassegrain + CCD.
    347 Utsunomiya-Imaizumi.  Observer M. Suzuki.  0.20-m f/10 Schmidt-Cassegrain
        + CCD.
    379 Hamamatsu-Yuto.  Observer S. Wakuda.  0.25-m f/5.0 Schmidt-Cassegrain
        + CCD.
    413 Siding Spring.  Observer R. H. McNaught.  1.0-m f/8 reflector + CCD.
    458 Guadarrama Observatory.  Observer D. Rodriguez.  0.20-m f/10
        Schmidt-Cassegrain + CCD.
    661 Rothney Astrophysical Observatory, Priddis.  Observer M. Williams.
        Measurer R. D. Cardinal.  0.50-m f/1.0 reflector + CCD.
    704 Lincoln Laboratory ETS, New Mexico.  Observers M. Blythe, F. Shelly,
        M. Bezpalko, R. Huber, L. Manguso, D. Torres, R. Kracke, M. McCleary,
        H. Stange, A. Milner.  Measurers J. Stuart, R. Sayer, J. Evans, J. Kommers.
        1.0-m f/2.15 reflector + CCD.
    850 Cordell-Lorenz Observatory, Sewanee.  Observers D. T. Durig, T. L. Jackson.
        0.30-m f/5.86 Schmidt-Cassegrain + CCD.
    939 Observatorio Rodeno.  Observer J. Castellano.  0.20-m f/10
        Schmidt-Cassegrain + CCD.
    A06 Mataro.  Observers F. Garcia, E. Cortes.  Measurer E. Cortes.  0.25-m
        f/6.3 Schmidt-Cassegrain + CCD.
    A30 Crespadoro.  Observers S. Valentini, G. Peretto.  Measurer S. Valentini.
        0.23-m f/10 Schmidt-Cassegrain + CCD.
    A41 Rezman Observatory, Kamnik.  Observer R. Palcic.  0.40-m f/2.3 reflector
        + CCD.
    A61 Tortona.  Observers F. Fratev, E. Mihaylova.  Measurer F. Fratev.  0.25-m
        f/4.7 reflector + CCD.
    J78 Murcia.  Observer J. Sanchez.  0.25-m f/3.3 Schmidt-Cassegrain + CCD.
    
    Orbital elements:
        P/2004 TU12 (Siding Spring)
    Epoch 2004 Nov. 11.0 TT = JDT 2453320.5
    T 2004 Nov. 10.28312 TT                                 MPC
    q   1.2276344            (2000.0)            P               Q
    n   0.18516734     Peri.  356.36228     +0.88227181     -0.40357723
    a   3.0485486      Node    31.25261     +0.44282722     +0.53691495
    e   0.5973053      Incl.   27.84481     +0.15968879     +0.74084260
    P   5.32
    From 378 observations 1990 Mar. 23-2004 Nov. 19, mean residual 0".38.
    
    Brian G. Marsden             (C) Copyright 2004 MPC           M.P.E.C. 2004-W16
    

    Read MPEC 2004-W15 Read MPEC 2004-W17


    MPEC number:

    Enter an MPEC number in one of the following forms:

    • 1997-B01 (the full form)
    • J97B01 (the packed version of the full form)
    • B01 (the abbreviated form)